TAP755 EKCH-LPPT

Flight info

Callsign TAP755
Flight time N/A
Altitude 36000
Route LANGO DCT CIV DCT MEDIL/N0451F370 DCT KOVIN DCT NIDUV DCT KIHVI UN872 TERPO/N0451F350 UN872 ERIGA DCT FUJTI/N0455F370 DCT BAKUP DCT BATAX DCT INBOM
Aircraft A21N/M-SDE2E3FGHIRWXY/LB1

Departure

Time 2026-05-04 16:08
Airport Copenhagen Kastrup Airport (EKCH)

Arrival

Time N/A
Airport Lisbon Humberto Delgado Airport (LPPT)
Time Latitude Longitude Altitude Speed Heading
2026-05-04 15:36 55.62889 12.63933 27 ft 0 kts 13°
2026-05-04 15:56 55.62878 12.63928 27 ft 3 kts 13°
2026-05-04 15:56 55.62860 12.63921 27 ft 3 kts 20°
2026-05-04 15:56 55.62843 12.63905 27 ft 3 kts 53°
2026-05-04 15:57 55.62839 12.63874 27 ft 3 kts 100°
2026-05-04 15:57 55.62842 12.63850 27 ft 0 kts 103°
2026-05-04 16:01 55.62842 12.63853 27 ft 1 kts 103°
2026-05-04 16:01 55.62838 12.63881 27 ft 4 kts 104°
2026-05-04 16:01 55.62818 12.63937 27 ft 6 kts 143°
2026-05-04 16:01 55.62778 12.63950 27 ft 6 kts 192°
2026-05-04 16:02 55.62736 12.63910 27 ft 7 kts 211°
2026-05-04 16:02 55.62687 12.63856 27 ft 9 kts 200°
2026-05-04 16:02 55.62609 12.63976 27 ft 8 kts 124°
2026-05-04 16:03 55.62575 12.64068 27 ft 12 kts 123°
2026-05-04 16:03 55.62529 12.64191 27 ft 12 kts 123°
2026-05-04 16:03 55.62482 12.64315 27 ft 12 kts 127°
2026-05-04 16:03 55.62429 12.64428 27 ft 12 kts 139°
2026-05-04 16:04 55.62354 12.64431 27 ft 11 kts 195°
2026-05-04 16:04 55.62193 12.64338 25 ft 13 kts 205°
2026-05-04 16:04 55.62119 12.64277 27 ft 11 kts 205°
2026-05-04 16:05 55.62049 12.64219 27 ft 11 kts 205°
2026-05-04 16:05 55.61979 12.64159 27 ft 11 kts 206°
2026-05-04 16:05 55.61835 12.64072 27 ft 11 kts 178°
2026-05-04 16:06 55.61759 12.64081 27 ft 11 kts 175°
2026-05-04 16:06 55.61602 12.64034 30 ft 9 kts 220°
2026-05-04 16:07 55.61596 12.64025 30 ft 0 kts 221°
2026-05-04 16:07 55.60265 12.61964 28 ft 172 kts 221°
2026-05-04 16:08 55.59337 12.60525 464 ft 174 kts 224°
2026-05-04 16:08 55.56613 12.56043 2162 ft 203 kts 233°
2026-05-04 16:09 55.54925 12.51348 3107 ft 245 kts 242°
2026-05-04 16:09 55.53153 12.46122 5047 ft 249 kts 242°
2026-05-04 16:10 55.51343 12.40908 6898 ft 250 kts 241°
2026-05-04 16:11 55.48525 12.32873 9332 ft 263 kts 241°
2026-05-04 16:11 55.47554 12.30116 10129 ft 267 kts 241°
2026-05-04 16:12 55.44300 12.20883 11235 ft 324 kts 240°
2026-05-04 16:12 55.40621 12.10526 13360 ft 340 kts 240°
2026-05-04 16:13 55.38085 12.03409 14820 ft 346 kts 240°
2026-05-04 16:13 55.35507 11.96187 16198 ft 352 kts 240°
2026-05-04 16:14 55.32879 11.88851 17555 ft 358 kts 240°
2026-05-04 16:14 55.30203 11.81399 18772 ft 364 kts 240°
2026-05-04 16:15 55.26092 11.69997 20365 ft 373 kts 240°
2026-05-04 16:16 55.23261 11.62261 21419 ft 380 kts 239°
2026-05-04 16:16 55.18884 11.50421 22885 ft 390 kts 239°
2026-05-04 16:17 55.15907 11.42401 23773 ft 396 kts 239°
2026-05-04 16:18 55.11356 11.30186 24908 ft 403 kts 239°
2026-05-04 16:18 55.09818 11.26072 25271 ft 406 kts 239°
2026-05-04 16:19 55.05141 11.13604 26326 ft 413 kts 239°
2026-05-04 16:19 55.01973 11.05192 26951 ft 417 kts 239°
2026-05-04 16:20 54.97283 10.92800 28576 ft 407 kts 238°
2026-05-04 16:20 54.93967 10.84630 28960 ft 417 kts 232°
2026-05-04 16:21 54.88171 10.73532 30227 ft 413 kts 229°
2026-05-04 16:22 54.84213 10.66293 30824 ft 413 kts 229°
2026-05-04 16:22 54.78312 10.55451 31946 ft 403 kts 230°
2026-05-04 16:23 54.72607 10.44948 32834 ft 401 kts 230°
2026-05-04 16:24 54.64953 10.30909 33648 ft 403 kts 229°
2026-05-04 16:25 54.61096 10.23872 34031 ft 404 kts 229°
2026-05-04 16:26 54.53394 10.09890 34861 ft 398 kts 229°
2026-05-04 16:26 54.47637 9.99484 35179 ft 401 kts 229°
2026-05-04 16:27 54.43779 9.92536 35430 ft 402 kts 229°
2026-05-04 16:28 54.37961 9.82100 35776 ft 403 kts 229°
2026-05-04 16:28 54.32122 9.71672 35991 ft 405 kts 229°
2026-05-04 16:29 54.24322 9.57814 35988 ft 404 kts 229°
2026-05-04 16:31 54.14558 9.40576 35986 ft 405 kts 229°
2026-05-04 16:32 54.02805 9.19996 35984 ft 403 kts 228°
2026-05-04 16:33 53.94970 9.06371 35991 ft 403 kts 228°
2026-05-04 16:34 53.89080 8.96181 35983 ft 403 kts 228°
2026-05-04 16:35 53.77296 8.75923 35993 ft 402 kts 228°
2026-05-04 16:36 53.71416 8.65880 35993 ft 402 kts 228°
2026-05-04 16:37 53.65503 8.55822 35992 ft 402 kts 228°
2026-05-04 16:38 53.58255 8.43552 35991 ft 402 kts 228°
2026-05-04 16:39 53.48404 8.26975 35998 ft 402 kts 227°
2026-05-04 16:40 53.40486 8.13736 35989 ft 400 kts 227°
2026-05-04 16:41 53.30604 7.97315 35994 ft 400 kts 227°
2026-05-04 16:43 53.20700 7.80970 35985 ft 400 kts 227°
2026-05-04 16:43 53.14749 7.71202 35976 ft 400 kts 227°
2026-05-04 16:45 53.02808 7.51724 35974 ft 401 kts 226°
2026-05-04 16:46 52.92887 7.35663 35969 ft 398 kts 226°
2026-05-04 16:47 52.84937 7.22870 35970 ft 398 kts 226°
2026-05-04 16:48 52.76985 7.10142 35953 ft 397 kts 225°
2026-05-04 16:49 52.69048 6.97506 35964 ft 396 kts 225°
2026-05-04 16:50 52.61099 6.84919 35959 ft 396 kts 225°
2026-05-04 16:51 52.55144 6.75532 35955 ft 396 kts 224°
2026-05-04 16:52 52.47181 6.63039 35958 ft 396 kts 224°
2026-05-04 16:53 52.41191 6.53684 35954 ft 396 kts 224°
2026-05-04 16:54 52.33211 6.41278 35949 ft 397 kts 223°
2026-05-04 16:55 52.21145 6.22643 35958 ft 398 kts 223°
2026-05-04 16:56 52.11088 6.07223 35961 ft 399 kts 223°
2026-05-04 16:57 52.05001 5.97938 35965 ft 400 kts 223°
2026-05-04 16:58 51.96860 5.85576 35961 ft 401 kts 222°
2026-05-04 17:00 51.84574 5.67044 35960 ft 404 kts 222°
2026-05-04 17:01 51.74277 5.51622 35954 ft 404 kts 222°
2026-05-04 17:02 51.66046 5.39367 35961 ft 405 kts 222°
2026-05-04 17:03 51.59817 5.30134 35970 ft 406 kts 221°
2026-05-04 17:03 51.53564 5.20902 35961 ft 408 kts 221°
2026-05-04 17:04 51.45192 5.08597 35955 ft 408 kts 221°
2026-05-04 17:05 51.36791 4.96315 35963 ft 409 kts 221°
2026-05-04 17:06 51.30477 4.87126 35962 ft 409 kts 221°
2026-05-04 17:07 51.24897 4.79033 35949 ft 409 kts 221°
2026-05-04 17:07 51.19972 4.71915 35954 ft 409 kts 221°
2026-05-04 17:08 51.13620 4.62765 35968 ft 410 kts 221°
2026-05-04 17:09 51.09447 4.56774 35964 ft 410 kts 221°
2026-05-04 17:09 51.05199 4.50690 35964 ft 410 kts 221°
2026-05-04 17:10 50.94608 4.35590 35965 ft 410 kts 220°
2026-05-04 17:11 50.90355 4.29553 35966 ft 410 kts 220°
2026-05-04 17:12 50.83963 4.20509 35963 ft 410 kts 220°
2026-05-04 17:13 50.73305 4.05505 35949 ft 410 kts 220°
2026-05-04 17:14 50.64762 3.93548 35948 ft 410 kts 220°
2026-05-04 17:15 50.58278 3.84764 35938 ft 409 kts 214°
2026-05-04 17:16 50.48106 3.76818 35945 ft 409 kts 203°
2026-05-04 17:17 50.37657 3.69822 35946 ft 409 kts 203°
2026-05-04 17:17 50.29787 3.64507 36117 ft 411 kts 203°
2026-05-04 17:18 50.27156 3.62730 36252 ft 411 kts 203°
2026-05-04 17:18 50.21895 3.59181 36460 ft 412 kts 203°
2026-05-04 17:19 50.16621 3.55634 36658 ft 414 kts 203°
2026-05-04 17:19 50.11323 3.52081 36809 ft 415 kts 204°
2026-05-04 17:20 50.05996 3.48516 36942 ft 418 kts 204°
2026-05-04 17:20 49.97955 3.43152 36940 ft 419 kts 204°
2026-05-04 17:21 49.87281 3.36061 36942 ft 418 kts 203°
2026-05-04 17:22 49.82804 3.33097 36930 ft 417 kts 203°
2026-05-04 17:23 49.72115 3.26045 36939 ft 417 kts 203°
2026-05-04 17:24 49.64097 3.20777 36939 ft 417 kts 203°
2026-05-04 17:25 49.53452 3.13749 36940 ft 417 kts 207°
2026-05-04 17:25 49.48692 3.08709 36934 ft 418 kts 224°
2026-05-04 17:26 49.45164 3.01600 36933 ft 420 kts 237°
2026-05-04 17:27 49.37944 2.82040 36932 ft 421 kts 239°
2026-05-04 17:28 49.32214 2.66358 36947 ft 421 kts 240°
2026-05-04 17:29 49.23863 2.42579 36934 ft 422 kts 240°
2026-05-04 17:31 49.16789 2.22920 36938 ft 422 kts 239°
2026-05-04 17:32 49.09607 2.03353 36937 ft 425 kts 242°
2026-05-04 17:33 49.04610 1.87007 36939 ft 424 kts 243°
2026-05-04 17:34 48.99702 1.70707 36945 ft 424 kts 243°
2026-05-04 17:35 48.93500 1.50346 36944 ft 424 kts 243°
2026-05-04 17:36 48.91010 1.42221 36945 ft 424 kts 243°
2026-05-04 17:36 48.88512 1.34094 36949 ft 424 kts 243°
2026-05-04 17:37 48.86008 1.25975 36949 ft 425 kts 243°
2026-05-04 17:37 48.83489 1.17835 36953 ft 426 kts 243°
2026-05-04 17:38 48.80964 1.09700 36951 ft 426 kts 243°
2026-05-04 17:38 48.78429 1.01560 36956 ft 426 kts 243°
2026-05-04 17:39 48.74575 0.89429 36953 ft 425 kts 238°
2026-05-04 17:39 48.71583 0.81709 36955 ft 425 kts 237°
2026-05-04 17:40 48.68494 0.74060 36955 ft 425 kts 237°
2026-05-04 17:40 48.65386 0.66445 36957 ft 425 kts 237°
2026-05-04 17:41 48.62304 0.58897 36955 ft 424 kts 236°
2026-05-04 17:41 48.59212 0.51327 36952 ft 423 kts 236°
2026-05-04 17:42 48.56116 0.43765 36950 ft 423 kts 236°
2026-05-04 17:42 48.53020 0.36224 36950 ft 424 kts 236°
2026-05-04 17:43 48.49909 0.28668 36951 ft 424 kts 236°
2026-05-04 17:43 48.46792 0.21119 36948 ft 424 kts 236°
2026-05-04 17:44 48.43664 0.13566 36956 ft 424 kts 236°
2026-05-04 17:44 48.40543 0.06049 36957 ft 423 kts 236°
2026-05-04 17:45 48.37423 -0.01444 36973 ft 422 kts 236°
2026-05-04 17:45 48.34137 -0.08776 36958 ft 423 kts 231°
2026-05-04 17:46 48.30605 -0.15864 36954 ft 423 kts 230°
2026-05-04 17:46 48.27061 -0.22871 36955 ft 424 kts 231°
2026-05-04 17:47 48.23494 -0.29905 36955 ft 423 kts 230°
2026-05-04 17:47 48.19905 -0.36920 36957 ft 423 kts 230°
2026-05-04 17:48 48.16325 -0.43905 36959 ft 423 kts 230°
2026-05-04 17:48 48.12742 -0.50887 36960 ft 423 kts 230°
2026-05-04 17:49 48.09157 -0.57860 36964 ft 423 kts 230°
2026-05-04 17:49 48.05571 -0.64817 36965 ft 422 kts 230°
2026-05-04 17:50 48.01979 -0.71769 36969 ft 422 kts 230°
2026-05-04 17:50 47.98383 -0.78708 36967 ft 422 kts 230°
2026-05-04 17:51 47.94785 -0.85635 36979 ft 422 kts 230°
2026-05-04 17:51 47.91171 -0.92572 36960 ft 425 kts 230°
2026-05-04 17:52 47.87540 -0.99525 36944 ft 425 kts 230°
2026-05-04 17:52 47.83928 -1.06426 36943 ft 425 kts 230°
2026-05-04 17:53 47.80292 -1.13356 36945 ft 425 kts 230°
2026-05-04 17:53 47.76646 -1.20286 36943 ft 425 kts 230°
2026-05-04 17:54 47.73007 -1.27185 36960 ft 425 kts 230°
2026-05-04 17:54 47.69346 -1.34106 36944 ft 427 kts 230°
2026-05-04 17:55 47.65677 -1.41026 36945 ft 427 kts 230°
2026-05-04 17:55 47.61995 -1.47954 36942 ft 427 kts 230°
2026-05-04 17:56 47.58238 -1.54763 36943 ft 426 kts 227°
2026-05-04 17:56 47.54287 -1.61289 36945 ft 425 kts 225°
2026-05-04 17:57 47.50301 -1.67745 36965 ft 425 kts 226°
2026-05-04 17:57 47.46319 -1.74225 36949 ft 427 kts 226°
2026-05-04 17:58 47.42335 -1.80735 36942 ft 427 kts 226°
2026-05-04 17:58 47.38353 -1.87242 36949 ft 427 kts 226°
2026-05-04 17:59 47.34132 -1.93264 36962 ft 424 kts 214°
2026-05-04 18:00 47.26716 -2.00328 36965 ft 423 kts 210°
2026-05-04 18:00 47.21662 -2.04789 36968 ft 423 kts 210°
2026-05-04 18:01 47.16610 -2.09244 36968 ft 424 kts 210°
2026-05-04 18:01 47.11526 -2.13750 36964 ft 427 kts 210°
2026-05-04 18:02 47.03939 -2.20481 36968 ft 427 kts 210°
2026-05-04 18:02 46.98857 -2.24978 36967 ft 427 kts 210°
2026-05-04 18:03 46.93772 -2.29466 36967 ft 427 kts 210°
2026-05-04 18:03 46.88674 -2.33955 36970 ft 427 kts 210°
2026-05-04 18:04 46.83578 -2.38433 36970 ft 427 kts 210°
2026-05-04 18:05 46.75932 -2.45142 36978 ft 428 kts 210°
2026-05-04 18:05 46.70811 -2.49622 36976 ft 430 kts 210°
2026-05-04 18:06 46.63134 -2.56321 36962 ft 431 kts 210°
2026-05-04 18:06 46.57991 -2.60795 36966 ft 431 kts 210°
2026-05-04 18:07 46.53677 -2.64540 36979 ft 431 kts 210°
2026-05-04 18:07 46.48575 -2.68961 36962 ft 429 kts 210°
2026-05-04 18:08 46.43451 -2.73390 36982 ft 428 kts 210°
2026-05-04 18:08 46.38335 -2.77803 36983 ft 428 kts 210°
2026-05-04 18:09 46.28090 -2.86612 36978 ft 428 kts 210°
2026-05-04 18:10 46.22981 -2.91030 36983 ft 428 kts 210°
2026-05-04 18:10 46.17881 -2.95477 36981 ft 428 kts 210°
2026-05-04 18:11 46.12790 -2.99911 36973 ft 428 kts 210°
2026-05-04 18:11 46.07698 -3.04330 36980 ft 427 kts 210°
2026-05-04 18:12 46.02601 -3.08741 36979 ft 427 kts 210°
2026-05-04 18:12 45.97513 -3.13134 36986 ft 427 kts 210°
2026-05-04 18:13 45.92420 -3.17522 36988 ft 427 kts 210°
2026-05-04 18:14 45.84779 -3.24086 36984 ft 429 kts 210°
2026-05-04 18:14 45.79655 -3.28477 36989 ft 429 kts 210°
2026-05-04 18:15 45.69411 -3.37227 36985 ft 428 kts 210°
2026-05-04 18:16 45.64295 -3.41582 36993 ft 428 kts 210°
2026-05-04 18:16 45.59169 -3.45937 36995 ft 428 kts 210°
2026-05-04 18:17 45.51480 -3.52452 36991 ft 428 kts 210°
2026-05-04 18:18 45.43791 -3.58945 36994 ft 428 kts 210°
2026-05-04 18:18 45.38700 -3.63233 36996 ft 428 kts 210°
2026-05-04 18:19 45.31016 -3.69688 36991 ft 428 kts 210°
2026-05-04 18:19 45.25889 -3.73983 36991 ft 427 kts 210°
2026-05-04 18:20 45.20772 -3.78262 36991 ft 427 kts 210°
2026-05-04 18:20 45.15655 -3.82531 36992 ft 427 kts 210°
2026-05-04 18:21 45.10534 -3.86794 36996 ft 427 kts 211°
2026-05-04 18:21 45.05398 -3.91061 37000 ft 428 kts 210°
2026-05-04 18:22 45.00255 -3.95324 37000 ft 428 kts 210°
2026-05-04 18:22 44.95110 -3.99581 37002 ft 428 kts 210°
2026-05-04 18:23 44.89963 -4.03829 36996 ft 428 kts 211°
2026-05-04 18:23 44.84821 -4.08066 36999 ft 428 kts 211°
2026-05-04 18:24 44.79675 -4.12297 37002 ft 428 kts 211°
2026-05-04 18:24 44.74535 -4.16514 37000 ft 428 kts 211°
2026-05-04 18:25 44.69393 -4.20723 36996 ft 428 kts 211°
2026-05-04 18:25 44.64284 -4.24897 37002 ft 428 kts 210°
2026-05-04 18:26 44.59139 -4.29092 37008 ft 427 kts 210°
2026-05-04 18:26 44.53994 -4.33278 37002 ft 427 kts 210°
2026-05-04 18:27 44.48846 -4.37458 37001 ft 427 kts 211°
2026-05-04 18:27 44.43713 -4.41617 37004 ft 426 kts 211°
2026-05-04 18:28 44.38596 -4.45823 37011 ft 426 kts 211°
2026-05-04 18:28 44.33532 -4.50117 37009 ft 426 kts 212°
2026-05-04 18:29 44.28475 -4.54420 37020 ft 425 kts 212°
2026-05-04 18:29 44.23417 -4.58702 37010 ft 425 kts 212°
2026-05-04 18:30 44.15802 -4.65116 37014 ft 427 kts 212°
2026-05-04 18:31 44.10716 -4.69387 37028 ft 427 kts 212°
2026-05-04 18:31 44.05632 -4.73647 37012 ft 427 kts 212°
2026-05-04 18:32 44.00540 -4.77907 37025 ft 427 kts 212°
2026-05-04 18:32 43.95447 -4.82159 37029 ft 427 kts 212°
2026-05-04 18:33 43.90358 -4.86398 37028 ft 427 kts 212°
2026-05-04 18:33 43.85264 -4.90633 37027 ft 427 kts 212°
2026-05-04 18:34 43.80206 -4.94830 37029 ft 427 kts 212°
2026-05-04 18:34 43.75108 -4.99051 37027 ft 427 kts 212°
2026-05-04 18:35 43.70001 -5.03272 37034 ft 427 kts 212°
2026-05-04 18:35 43.64905 -5.07474 37031 ft 426 kts 212°
2026-05-04 18:36 43.59815 -5.11664 37031 ft 426 kts 212°
2026-05-04 18:36 43.54723 -5.15847 37039 ft 426 kts 212°
2026-05-04 18:37 43.49630 -5.20023 37041 ft 426 kts 212°
2026-05-04 18:37 43.44535 -5.24192 37043 ft 426 kts 212°
2026-05-04 18:38 43.39440 -5.28352 37040 ft 426 kts 212°
2026-05-04 18:38 43.34370 -5.32483 37043 ft 426 kts 212°
2026-05-04 18:39 43.29258 -5.36642 37037 ft 427 kts 213°
2026-05-04 18:39 43.24141 -5.40797 37046 ft 428 kts 213°
2026-05-04 18:40 43.19017 -5.44948 37042 ft 428 kts 213°
2026-05-04 18:40 43.13889 -5.49094 37048 ft 428 kts 213°
2026-05-04 18:41 43.08761 -5.53232 37035 ft 428 kts 213°
2026-05-04 18:41 43.03642 -5.57355 37038 ft 426 kts 213°
2026-05-04 18:42 42.98530 -5.61465 37033 ft 426 kts 213°
2026-05-04 18:42 42.93422 -5.65563 37028 ft 426 kts 213°
2026-05-04 18:43 42.88304 -5.69662 37017 ft 426 kts 213°
2026-05-04 18:43 42.83196 -5.73743 36996 ft 425 kts 213°
2026-05-04 18:44 42.78121 -5.77790 36990 ft 425 kts 213°
2026-05-04 18:44 42.73011 -5.81858 36987 ft 425 kts 213°
2026-05-04 18:45 42.67907 -5.85914 36984 ft 425 kts 213°
2026-05-04 18:45 42.62801 -5.89964 36981 ft 425 kts 213°
2026-05-04 18:46 42.57686 -5.94013 36986 ft 425 kts 213°
2026-05-04 18:46 42.52571 -5.98053 36992 ft 425 kts 213°
2026-05-04 18:47 42.47456 -6.02086 37004 ft 425 kts 213°
2026-05-04 18:47 42.42347 -6.06107 37003 ft 425 kts 213°
2026-05-04 18:48 42.37239 -6.10118 37014 ft 424 kts 213°
2026-05-04 18:48 42.32120 -6.14133 37012 ft 426 kts 213°
2026-05-04 18:49 42.26984 -6.18152 37004 ft 426 kts 213°
2026-05-04 18:49 42.21851 -6.22160 37000 ft 426 kts 214°
2026-05-04 18:50 42.16730 -6.26151 37010 ft 424 kts 214°
2026-05-04 18:50 42.12477 -6.29460 37009 ft 424 kts 214°
2026-05-04 18:51 42.07362 -6.33435 37004 ft 424 kts 214°
2026-05-04 18:51 42.01418 -6.38043 36988 ft 424 kts 214°
2026-05-04 18:52 41.97135 -6.41357 37006 ft 423 kts 214°
2026-05-04 18:52 41.92028 -6.45302 37007 ft 423 kts 214°
2026-05-04 18:53 41.86960 -6.49210 37006 ft 423 kts 214°
2026-05-04 18:53 41.81811 -6.53173 37008 ft 424 kts 214°
2026-05-04 18:54 41.76736 -6.57072 37017 ft 423 kts 214°
2026-05-04 18:54 41.71635 -6.60986 37015 ft 421 kts 216°
2026-05-04 18:55 41.66883 -6.65474 37020 ft 417 kts 221°
2026-05-04 18:55 41.59945 -6.72508 37026 ft 417 kts 221°
2026-05-04 18:56 41.55326 -6.77204 37026 ft 417 kts 221°
2026-05-04 18:56 41.50717 -6.81882 37029 ft 416 kts 221°
2026-05-04 18:57 41.46110 -6.86551 37027 ft 416 kts 221°
2026-05-04 18:57 41.41489 -6.91227 37031 ft 417 kts 221°
2026-05-04 18:58 41.36859 -6.95902 37036 ft 418 kts 221°
2026-05-04 18:58 41.32252 -7.00544 37046 ft 417 kts 222°
2026-05-04 18:59 41.27633 -7.05191 37040 ft 416 kts 221°
2026-05-04 18:59 41.23012 -7.09833 37040 ft 416 kts 221°
2026-05-04 19:00 41.18387 -7.14469 37052 ft 416 kts 221°
2026-05-04 19:00 41.13769 -7.19090 37054 ft 416 kts 221°
2026-05-04 19:01 41.09142 -7.23711 37051 ft 415 kts 222°
2026-05-04 19:01 41.04536 -7.28303 37055 ft 413 kts 222°
2026-05-04 19:02 40.99945 -7.32873 37058 ft 413 kts 222°
2026-05-04 19:02 40.95343 -7.37445 37056 ft 413 kts 222°
2026-05-04 19:03 40.90744 -7.42006 37068 ft 413 kts 222°
2026-05-04 19:03 40.86143 -7.46561 37064 ft 412 kts 223°
2026-05-04 19:04 40.81566 -7.51084 37066 ft 411 kts 222°
2026-05-04 19:04 40.77005 -7.55584 37066 ft 411 kts 223°
2026-05-04 19:05 40.72423 -7.60095 37078 ft 411 kts 222°
2026-05-04 19:05 40.67841 -7.64600 37078 ft 412 kts 223°
2026-05-04 19:06 40.63244 -7.69110 37080 ft 411 kts 223°
2026-05-04 19:06 40.58660 -7.73600 37078 ft 410 kts 223°
2026-05-04 19:07 40.54085 -7.78074 37071 ft 410 kts 223°
2026-05-04 19:07 40.49501 -7.82549 37077 ft 410 kts 223°
2026-05-04 19:08 40.44918 -7.87014 37019 ft 410 kts 223°
2026-05-04 19:08 40.42627 -7.89243 36762 ft 409 kts 223°
2026-05-04 19:08 40.40347 -7.91460 36516 ft 408 kts 223°
2026-05-04 19:09 40.38064 -7.93677 36272 ft 407 kts 223°
2026-05-04 19:09 40.35792 -7.95882 36033 ft 407 kts 223°
2026-05-04 19:09 40.33519 -7.98087 35786 ft 406 kts 223°
2026-05-04 19:09 40.31252 -8.00283 35546 ft 405 kts 223°
2026-05-04 19:10 40.28987 -8.02476 35311 ft 404 kts 223°
2026-05-04 19:10 40.26759 -8.04630 35030 ft 400 kts 223°
2026-05-04 19:10 40.24529 -8.06782 34541 ft 397 kts 224°
2026-05-04 19:10 40.22313 -8.08922 33980 ft 395 kts 224°
2026-05-04 19:11 40.20098 -8.11061 33333 ft 394 kts 224°
2026-05-04 19:11 40.17902 -8.13177 32740 ft 390 kts 224°
2026-05-04 19:11 40.15727 -8.15270 32197 ft 386 kts 224°
2026-05-04 19:11 40.13573 -8.17344 31641 ft 383 kts 225°
2026-05-04 19:12 40.11433 -8.19403 31053 ft 382 kts 225°
2026-05-04 19:12 40.07170 -8.23499 29854 ft 378 kts 225°
2026-05-04 19:12 40.05074 -8.25506 29442 ft 370 kts 225°
2026-05-04 19:13 40.03014 -8.27457 29027 ft 369 kts 223°
2026-05-04 19:13 40.00756 -8.29195 28749 ft 395 kts 214°
2026-05-04 19:13 39.98081 -8.30444 28436 ft 422 kts 202°
2026-05-04 19:13 39.95141 -8.31088 27916 ft 431 kts 197°
2026-05-04 19:14 39.92157 -8.31541 27033 ft 433 kts 195°
2026-05-04 19:14 39.89169 -8.31961 26328 ft 430 kts 195°
2026-05-04 19:14 39.86215 -8.32383 25706 ft 425 kts 195°
2026-05-04 19:14 39.83289 -8.32811 25299 ft 420 kts 195°
2026-05-04 19:15 39.80383 -8.33247 25169 ft 421 kts 195°
2026-05-04 19:15 39.77471 -8.33690 25050 ft 421 kts 195°
2026-05-04 19:15 39.74565 -8.34132 24924 ft 421 kts 195°
2026-05-04 19:15 39.71676 -8.34663 24772 ft 415 kts 201°
2026-05-04 19:16 39.69037 -8.35916 24543 ft 397 kts 217°
2026-05-04 19:16 39.66919 -8.38077 24301 ft 381 kts 233°
2026-05-04 19:16 39.65227 -8.40706 24053 ft 377 kts 237°
2026-05-04 19:16 39.63645 -8.43402 23618 ft 375 kts 238°
2026-05-04 19:17 39.62070 -8.46117 23207 ft 376 kts 238°
2026-05-04 19:17 39.60491 -8.48823 22812 ft 376 kts 238°
2026-05-04 19:17 39.58867 -8.51478 22454 ft 378 kts 232°
2026-05-04 19:17 39.56837 -8.53682 22079 ft 385 kts 220°
2026-05-04 19:18 39.54570 -8.55546 21704 ft 386 kts 217°
2026-05-04 19:18 39.52269 -8.57336 21353 ft 385 kts 217°
2026-05-04 19:18 39.49997 -8.59095 20993 ft 384 kts 217°
2026-05-04 19:18 39.47709 -8.60873 20596 ft 383 kts 217°
2026-05-04 19:19 39.45430 -8.62650 20253 ft 381 kts 217°
2026-05-04 19:19 39.43164 -8.64420 19914 ft 380 kts 217°
2026-05-04 19:19 39.40901 -8.66188 19561 ft 379 kts 217°
2026-05-04 19:19 39.38650 -8.67948 19237 ft 377 kts 217°
2026-05-04 19:20 39.36411 -8.69698 18902 ft 376 kts 217°
2026-05-04 19:20 39.34171 -8.71448 18543 ft 375 kts 216°
2026-05-04 19:20 39.31953 -8.73221 18144 ft 373 kts 220°
2026-05-04 19:20 39.29934 -8.75280 17715 ft 369 kts 225°
2026-05-04 19:21 39.28013 -8.77456 17293 ft 367 kts 226°
2026-05-04 19:21 39.26109 -8.79650 16883 ft 365 kts 226°
2026-05-04 19:21 39.24217 -8.81829 16428 ft 364 kts 226°